Terminal Aerodrome Forecast
Issued by NWS

Home | Current Version | Previous Version | Text Only | Print | Product List | Glossary On
Versions: 1 2 3 4 5 6 7 8 9 10 11 12 13 14 15 16 17 18 19 20 21
000
FTAK31 PANC 170522
TAFADL
TAF
PADL 170522Z 1706/1806 18006KT P6SM VCSH SCT025 OVC050
      TEMPO 1706/1710 P6SM -SHRA BKN025
     FM171000 18005KT P6SM FEW017 BKN025=

USA.gov is the U.S. government's official web portal to all federal, state and local government web resources and services.